Tracking 22124 objects as of 25-Jan-2021
HD Live streaming from Space Station
objects crossing your sky now

STARLINK-1069

Track STARLINK-1069 now!
10-day predictions
STARLINK-1069 is classified as:


NORAD ID: 44955
Int'l Code: 2020-001AT
Perigee: 553.3 km
Apogee: 555.4 km
Inclination: 53.1 °
Period: 95.6 minutes
Semi major axis: 6925 km
RCS: Unknown
Launch date: January 7, 2020
Source: United States (US)
Launch site: AIR FORCE EASTERN TEST RANGE (AFETR)
aabbcc
Your satellite tracking list
Your tracking list is empty




NASA's NSSDC Master Catalog

Two Line Element Set (TLE):
1 44955U 20001AT  21024.79109742  .00000409  00000-0  46332-4 0  9993
2 44955  53.0573  60.8974 0001461  67.2538 292.8605 15.06403580 58512
Source of the keplerian elements: AFSPC